TimeCST,TemperatureF,Dew PointF,Humidity,Sea Level PressureIn,VisibilityMPH,Wind Direction,Wind SpeedMPH,Gust SpeedMPH,PrecipitationIn,Events,Conditions,WindDirDegrees,DateUTC
12:55 AM,52.5,36.5,54,29.97,10.0,ESE,10.4,-,N/A,,Clear,120,2012-11-08 06:55:00
1:55 AM,52.0,36.9,56,29.96,10.0,ESE,9.2,-,N/A,,Clear,120,2012-11-08 07:55:00
2:55 AM,50.7,37.0,59,29.96,10.0,ESE,9.2,-,N/A,,Clear,120,2012-11-08 08:55:00
3:55 AM,50.0,37.2,62,29.95,10.0,ESE,9.2,-,N/A,,Clear,120,2012-11-08 09:55:00
4:55 AM,50.5,38.1,62,29.95,10.0,SE,9.2,-,N/A,,Clear,130,2012-11-08 10:55:00
5:55 AM,49.8,38.3,65,29.95,10.0,SE,12.7,-,N/A,,Clear,130,2012-11-08 11:55:00
6:55 AM,48.9,38.5,67,29.96,10.0,SE,11.5,-,N/A,,Clear,140,2012-11-08 12:55:00
7:55 AM,50.7,39.9,67,29.96,10.0,SE,11.5,-,N/A,,Clear,130,2012-11-08 13:55:00
8:55 AM,57.4,42.4,57,29.96,10.0,SSE,17.3,-,N/A,,Clear,150,2012-11-08 14:55:00
9:55 AM,63.5,45.9,53,29.95,10.0,SSE,18.4,-,N/A,,Clear,150,2012-11-08 15:55:00
10:55 AM,70.2,50.4,49,29.93,10.0,SSE,17.3,-,N/A,,Clear,160,2012-11-08 16:55:00
11:11 AM,71.6,51.8,50,29.92,10.0,South,13.8,-,N/A,,Light Drizzle,180,2012-11-08 17:11:00
11:20 AM,73.4,51.8,47,29.91,10.0,South,17.3,-,N/A,,Clear,170,2012-11-08 17:20:00
11:55 AM,75.4,52.2,44,29.89,10.0,South,18.4,-,0.00,,Clear,190,2012-11-08 17:55:00
12:48 PM,78.8,51.8,39,29.84,10.0,South,20.7,-,N/A,,Light Drizzle,180,2012-11-08 18:48:00
12:55 PM,78.6,51.4,39,29.84,10.0,South,18.4,-,N/A,,Clear,190,2012-11-08 18:55:00
1:31 PM,80.6,50.0,34,29.81,10.0,South,20.7,-,N/A,,Clear,180,2012-11-08 19:31:00
1:55 PM,81.3,50.9,35,29.81,10.0,South,21.9,-,0.00,,Clear,180,2012-11-08 19:55:00
1:58 PM,80.6,51.8,37,29.81,10.0,South,20.7,25.3,N/A,,Clear,180,2012-11-08 19:58:00
2:02 PM,82.4,51.8,35,29.81,10.0,South,18.4,25.3,N/A,,Clear,180,2012-11-08 20:02:00
2:55 PM,81.9,51.8,35,29.80,10.0,South,18.4,21.9,N/A,,Clear,180,2012-11-08 20:55:00
3:55 PM,82.9,52.2,34,29.79,10.0,South,18.4,-,N/A,,Clear,170,2012-11-08 21:55:00
4:55 PM,82.4,50.2,33,29.78,10.0,SSE,12.7,-,N/A,,Clear,160,2012-11-08 22:55:00
5:55 PM,77.7,52.5,41,29.78,10.0,SSE,13.8,-,N/A,,Clear,160,2012-11-08 23:55:00
6:55 PM,75.6,52.7,45,29.80,10.0,SSE,11.5,-,N/A,,Clear,160,2012-11-09 00:55:00
7:55 PM,75.2,52.9,46,29.81,10.0,SSE,13.8,-,N/A,,Partly Cloudy,160,2012-11-09 01:55:00
8:55 PM,69.6,53.1,56,29.81,10.0,SSE,11.5,-,N/A,,Partly Cloudy,150,2012-11-09 02:55:00
9:55 PM,68.4,54.1,60,29.82,10.0,SSE,9.2,-,N/A,,Partly Cloudy,160,2012-11-09 03:55:00
10:55 PM,68.7,54.5,60,29.82,10.0,South,12.7,-,N/A,,Clear,170,2012-11-09 04:55:00
11:55 PM,68.4,54.1,60,29.82,10.0,SSE,10.4,-,N/A,,Scattered Clouds,160,2012-11-09 05:55:00